Skip Page Navigation
NASA JPL Caltech
NASA Logo - Jet Propulsion Laboratory + View the NASA Portal
+ Center for Near-Earth Object Studies
JPL Home Earth Solar System Stars & Galaxies Technology
JPL Solar System Dynamics
BODIES ORBITS EPHEMERIDES TOOLS PHYSICAL DATA DISCOVERY FAQ SITE MAP
IMPORTANT: The SSD Announcement email list is now available. Major changes are coming in the near future, including possible hostname and/or URL changes. To be notified of such changes, subscribe to this email list.

Please visit this page for more details.


JPL Small-Body Database Browser
Search: [ help ]  
65331 (2002 LW35)
Classification: Main-belt Asteroid          SPK-ID: 2065331
Ephemeris | Orbit Diagram | Orbital Elements | Mission Design | Physical Parameters | Discovery Circumstances | Close-Approach Data ]

[ show orbit diagram ]
Orbital Elements at Epoch 2458600.5 (2019-Apr-27.0) TDB
Reference: JPL 17 (heliocentric ecliptic J2000)
 Element Value Uncertainty (1-sigma)   Units 
e .04360058967410435 4.6141e-08  
a 3.197630138982337 4.049e-08 au
q 3.058211579363019 1.4867e-07 au
i 13.49340025326773 5.7764e-06 deg
node 107.7142419803632 2.2004e-05 deg
peri 275.3171763056645 7.4192e-05 deg
M 228.3570988856477 6.9119e-05 deg
tp 2459364.222725437695
(2021-May-29.72272544)
0.00040081 TDB
period 2088.530249866964
5.72
3.9669e-05
1.086e-07
d
yr
n .1723700195498396 3.2739e-09 deg/d
Q 3.337048698601655 4.2255e-08 au
  Orbit Determination Parameters
   # obs. used (total)      502  
   data-arc span      7533 days (20.62 yr)  
   first obs. used      1998-09-25  
   last obs. used      2019-05-11  
   planetary ephem.      DE431  
   SB-pert. ephem.      SB431-N16  
   condition code      0  
   norm. resid. RMS      .61492  
   source      ORB  
   producer      Otto Matic  
   solution date      2019-May-30 05:26:17  

Additional Information
 Earth MOID = 2.10049 au 
 Jupiter MOID = 1.95367 au 
 T_jup = 3.150 
[ show covariance matrix ]

Ephemeris | Orbit Diagram | Orbital Elements | Mission Design | Physical Parameters | Discovery Circumstances | Close-Approach Data ]

Physical Parameter Table
Parameter Symbol Value Units Sigma Reference Notes
absolute magnitude H 14.2   n/a MPO493327  

65331 (2002 LW35)          Discovered 2002-Jun-09 by LINEAR at Socorro
Reference: 20030614/Numbers.arcLast Updated: 2004-04-19

[ show close-approach data ]
Alternate Designations
 2002 LW35 = 2000 AH40 = 2000 CE147 
Ephemeris | Orbit Diagram | Orbital Elements | Mission Design | Physical Parameters | Discovery Circumstances | Close-Approach Data ]
ABOUT SSD CREDITS/AWARDS PRIVACY/COPYRIGHT GLOSSARY LINKS
FirstGov 2020-Jan-24 11:10 UT
(server date/time)  
NASA Home Page
Site Manager:   Ryan S. Park
Webmaster  Alan B. Chamberlin